Location: *
(44.1392°N, 4.8079°E)
Time: 07:41:39
(UTC+00:00)

deb Kosmos-1763 - Pass Details

Date: 21 June 2021
Orbit: 445 x 453 km, 74.0° (Epoch: 02 August)

Event Time Altitude Azimuth Distance (km) Brightness Sun altitude
Exits shadow 03:03:24 10° 210° (SSW) 1,560 6.0 -8.3°
Maximum altitude 03:06:48 63° 292° (WNW) 513 4.1 -7.9°
Drops below altitude 10° 03:10:19 10° 14° (NNE) 1,604 7.7 -7.4°
Sets 03:12:26 0° 18° (NNE) 2,484 8.9 -7.1°
